Flag for Germany Weather past 2 weeks in Hamburg, Hamburg, Germany

Now
54 °F

Partly sunny.


Feels Like: 51 °F
Forecast: 49 / 57 °F
Wind: 9 mph from Southwest

Location: Hamburg-Fuhlsbuettel

Current Time: Oct 23, 2014 at 7:11:10 PM

Latest Report: Oct 23, 2014 at 6:20 PM


Visibility: N/A

Pressure: 30.15 "Hg

Humidity: 82%

Dew point: 48 °F

Location of HamburgLocation

Historic Weather in Hamburg — Graph

°F

Hamburg temperature yesterday

Maximum temperature yesterday: 57 °F (at 2:50 PM)
Minimum temperature yesterday: 48 °F (at 1:50 AM)
Average temperature yesterday: 52 °F

Past Weeks' High & Low Weather Summary

 TemperatureHumidityPressure
High72 °F (Oct 19, 1:50 PM)100% (Oct 9, 5:50 AM)30.15 "Hg (Oct 9, 5:50 AM)
Low48 °F (Oct 11, 5:20 AM)59% (Oct 14, 3:50 PM)29.36 "Hg (Oct 21, 6:20 PM)
Average57 °F88%29.81 "Hg
* Reported Oct 8 5:20 PM — Oct 23 5:50 PM, Hamburg, Weather by CustomWeather, © 2014

Note: Actual official high and low records may vary slightly from our data, if they occured in-between our weather recording intervals... More about our weather records

Advertising

Hamburg weather history for previous 24 hours

 ConditionsComfort  
Time TempWeatherWind HumidityBarometerVisibility
5:50 PM
Oct 23
54 °FSunny.8 mph82%30.15 "Hg10 mi
5:20 PM55 °FBroken clouds.7 mph77%30.15 "HgN/A
4:50 PM55 °FBroken clouds.8 mph72%30.15 "HgN/A
4:20 PM55 °FBroken clouds.8 mph77%30.15 "HgN/A
3:50 PM55 °FPartly sunny.8 mph77%30.15 "HgN/A
3:20 PM57 °FPartly sunny.7 mph72%30.15 "HgN/A
2:50 PM55 °FPartly sunny.10 mph72%30.15 "HgN/A
2:20 PM55 °FPartly sunny.10 mph72%30.15 "HgN/A
1:50 PM55 °FBroken clouds.10 mph72%30.15 "HgN/A
1:20 PM55 °FBroken clouds.9 mph72%30.15 "HgN/A
12:50 PM55 °FPartly sunny.7 mph72%30.15 "HgN/A
12:20 PM55 °FPartly sunny.9 mph67%30.15 "HgN/A
11:50 AM55 °FPartly sunny.8 mph67%30.15 "HgN/A
11:20 AM55 °FPartly sunny.7 mph67%30.15 "HgN/A
10:50 AM54 °FPartly sunny.6 mph77%30.15 "HgN/A
10:20 AM52 °FScattered clouds.6 mph82%30.15 "HgN/A
9:50 AM52 °FScattered clouds.6 mph82%30.15 "HgN/A
9:20 AM50 °FScattered clouds.2 mph88%30.15 "HgN/A
8:50 AM48 °FPassing clouds.5 mph94%30.12 "HgN/A
8:20 AM48 °FPassing clouds.6 mph94%30.12 "HgN/A
7:50 AM50 °FPassing clouds.3 mph88%30.12 "HgN/A
7:20 AM50 °FPassing clouds.5 mph88%30.09 "HgN/A
6:50 AM50 °FPassing clouds.5 mph88%30.09 "HgN/A
6:20 AM50 °FPassing clouds.5 mph88%30.09 "HgN/A
5:50 AM50 °FPassing clouds.2 mph88%30.09 "HgN/A
5:20 AM50 °FPassing clouds.3 mph88%30.09 "HgN/A
4:50 AM50 °FPassing clouds.3 mph88%30.09 "HgN/A
4:20 AM50 °FPassing clouds.7 mph88%30.07 "HgN/A
3:50 AM50 °FPassing clouds.5 mph88%30.07 "HgN/A
3:20 AM48 °FPassing clouds.2 mph94%30.07 "HgN/A
2:50 AM50 °FPassing clouds.6 mph88%30.07 "HgN/A
2:20 AM50 °FPassing clouds.8 mph88%30.07 "HgN/A
1:50 AM50 °FPassing clouds.8 mph94%30.04 "HgN/A
1:20 AM52 °FPassing clouds.8 mph88%30.04 "HgN/A
12:50 AM52 °FPassing clouds.9 mph88%30.04 "HgN/A
12:20 AM52 °FPartly cloudy.12 mph88%30.04 "HgN/A
11:50 PM
Oct 22
52 °FPartly cloudy.16 mph88%30.04 "HgN/A
11:20 PM52 °FPassing clouds.14 mph88%30.01 "HgN/A
10:50 PM52 °FPassing clouds.13 mph94%30.01 "HgN/A
10:20 PM52 °FPassing clouds.15 mph94%30.01 "HgN/A
9:50 PM52 °FPassing clouds.13 mph94%29.98 "HgN/A
9:20 PM52 °FPassing clouds.12 mph94%29.98 "HgN/A
8:50 PM52 °FPassing clouds.14 mph94%29.95 "HgN/A
8:20 PM52 °FPartly cloudy.13 mph94%29.95 "HgN/A
7:50 PM54 °FPartly cloudy.15 mph88%29.95 "HgN/A
7:20 PM54 °FPartly cloudy.15 mph88%29.92 "HgN/A
Weather by CustomWeather, © 2014

See weather overviewHow to use our weather pages